Regional Weather Roundup
Issued by NWS

Home | Current Version | Previous Version | Graphics & Text | Print | Product List | Glossary On
Versions: 1 2 3 4 5 6 7 8 9 10 11 12 13 14 15 16 17 18 19 20 21 22 23 24 25 26 27 28 29 30 31 32 33 34 35 36 37 38 39 40 41 42 43 44 45 46 47 48 49 50
000
ASUS43 KOAX 271610
RWRNE

WEATHER ROUNDUP FOR NEBRASKA
NATIONAL WEATHER SERVICE OMAHA NE
1000 AM CST TUE JAN 27 2015

NOTES: SATELLITE DATA IS BEING USED TO AUGMENT CLOUD COVER ABOVE
       12000 FEET.
       "FAIR" INDICATES FEW OR NO CLOUDS BELOW 12,000 FEET WITH NO
       SIGNIFICANT WEATHER AND/OR OBSTRUCTIONS TO VISIBILITY.

  * THESE STATIONS DO NOT REPORT WEATHER SUCH AS RAIN...SNOW OR FOG.

NEZ001>004-019>022-054>056-271700-
NEBRASKA PANHANDLE

CITY           SKY/WX    TMP DP  RH WIND       PRES   REMARKS
SCOTTSBLUFF      N/A    N/A N/A N/A MISG      30.08S
ALLIANCE       SUNNY     43  33  68 W8        30.06S
CHADRON        SUNNY     49  31  49 SW9       30.04S
KIMBALL        SUNNY     49  27  42 W8        30.11S
SIDNEY         SUNNY     47  31  53 SW9       30.11S
$$

NEZ057>060-069>072-079>082-271700-
SOUTHWEST NEBRASKA

CITY           SKY/WX    TMP DP  RH WIND       PRES   REMARKS
NORTH PLATTE   SUNNY     38  32  79 W5        30.05R WCI  34
IMPERIAL       SUNNY     45  29  53 W12       30.07S
LEXINGTON      SUNNY     41  33  72 W5        30.04S
MCCOOK         SUNNY     43  31  62 W8        30.06F
OGALLALA       SUNNY     41  33  72 W12       30.06S
$$

NEZ005>010-023>029-035>040-094-271700-
NORTH CENTRAL NEBRASKA

CITY           SKY/WX    TMP DP  RH WIND       PRES   REMARKS
VALENTINE      SUNNY     43  35  73 SW7       29.98S
AINSWORTH      SUNNY     46  34  62 CALM      29.98S
BROKEN BOW     SUNNY     40  33  76 SE3       30.00F
O`NEILL        SUNNY     40  34  77 S12       30.02S WCI  33
ORD            SUNNY     36  30  79 CALM      30.02S
THEDFORD       SUNNY     44  36  73 NW3       30.01S
$$

NEZ041-046>049-061>064-073>077-083>087-271700-
SOUTH CENTRAL NEBRASKA

CITY           SKY/WX    TMP DP  RH WIND       PRES   REMARKS
GRAND ISLAND   SUNNY     44  32  62 S12       30.06S
AURORA         SUNNY     43  34  70 SE13      30.07R
HASTINGS       SUNNY     44  31  60 S8        30.04F
HEBRON         SUNNY     45  33  61 SE12      30.10S
HOLDREGE       SUNNY     45  31  58 W10       30.04S
KEARNEY *      SUNNY     39  30  70 SW6       30.04S WCI  35
YORK           SUNNY     43  34  70 S10       30.08F
$$

NEZ011>018-030>034-042>045-271700-
NORTHEAST NEBRASKA

CITY           SKY/WX    TMP DP  RH WIND       PRES   REMARKS
NORFOLK        SUNNY     40  35  83 SE8       30.07F WCI  34
ALBION         SUNNY     39  32  76 SE8       30.06F WCI  33
BLAIR          SUNNY     40  35  80 SE8       30.13R
COLUMBUS *     SUNNY     37  30  75 SE8       30.11S WCI  31
FREMONT        SUNNY     40  35  83 SE5       30.13S
TEKAMAH        SUNNY     37  33  85 SE5       30.14S WCI  33
WAYNE          SUNNY     39  35  84 S8        30.10F WCI  34
$$

NEZ050>053-065>068-078-088>093-271700-
SOUTHEAST NEBRASKA

CITY           SKY/WX    TMP DP  RH WIND       PRES   REMARKS
LINCOLN        SUNNY     35  30  82 CALM      30.13F
OMAHA EPPLEY   MOSUNNY   38  34  85 SE3       30.15R
BEATRICE       SUNNY     40  32  73 SE8       30.12S
FALLS CITY     SUNNY     38  32  79 SE3       30.15S
NEBRASKA CITY  SUNNY     40  32  74 SE7       30.15R
PLATTSMOUTH    SUNNY     40  34  79 SE6       30.14S
$$

NEZ044-045-051>053-067-271700-
OMAHA AREA

CITY           SKY/WX    TMP DP  RH WIND       PRES   REMARKS
OMAHA EPPLEY   MOSUNNY   38  34  85 SE3       30.15R
BLAIR          SUNNY     40  35  80 SE8       30.13R
FREMONT        SUNNY     40  35  83 SE5       30.13S
MILLARD        SUNNY     38  33  82 SE5       30.14S WCI  34
OFFUTT AFB     SUNNY     36  33  89 VRB2      30.14R
PLATTSMOUTH    SUNNY     40  34  79 SE6       30.14S
WAHOO          FAIR      38  32  80 SE6       30.13R WCI  33
$$



USA.gov is the U.S. government's official web portal to all federal, state and local government web resources and services.